Terminal Aerodrome Forecast
Issued by NWS

Current Version | Previous Version | Text Only | Print | Product List | Glossary On
Versions: 1 2 3 4 5 6 7 8 9 10 11 12 13
000
FTUS46 KSGX 292300
TAFONT
TAF
KONT 292323Z 3000/3106 26013KT P6SM FEW200
     FM300400 25007KT P6SM FEW200
     FM300800 VRB04KT P6SM FEW200
     FM302000 26012KT P6SM SKC
     FM310400 26006KT P6SM SKC=

USA.gov is the U.S. government's official web portal to all federal, state and local government web resources and services.